This demonstration page uses our WeatherBlox Daily Observations layout. Learn more.

Left ArrowRight Arrow

39.01783, -85.05884

Hourly Observations for October 8, 2019

Temp ( °F °C ) Dew Point ( °F °C ) Humidity (%) Winds ( mph kmh ) Pressure ( in mb ) Visibility ( mi km ) Precip ( " mm )
12:52 am 00:52 Clear 52 11.1 50 10 93 93 Calm 30.21 1023 7 11 0.00 0.00
1:52 am 01:52 Clear with Mist and Fog 51 10.6 48 8.9 89 89 Calm 30.21 1023 5 8 0.00 0.00
2:52 am 02:52 Clear with Mist and Fog 50 10 47 8.3 89 89 Calm 30.21 1023 3 5 0.00 0.00
2:57 am 02:57 Mostly Clear with Mist and Fog 50 10 47 8.3 89 89 Calm 30.23 1024 2 3 0.00 0.00
3:07 am 03:07 Mostly Cloudy with Fog 50 10 47 8.3 89 89 Calm 30.22 1023 1 1 0.00 0.00
3:14 am 03:14 Mostly Cloudy with Fog 49 9.4 48 8.9 97 97 NNE 3 6 30.22 1023 0 0 0.00 0.00
3:52 am 03:52 Mostly Cloudy with Fog 48 8.9 47 8.3 96 96 Calm 30.19 1023 1 2 0.00 0.00
4:52 am 04:52 Mostly Cloudy with Fog 48 8.9 46 7.8 93 93 N 3 6 30.20 1023 0 0 0.00 0.00
5:36 am 05:36 Mostly Cloudy with Mist and Fog 50 10 48 8.9 93 93 NNE 6 9 30.22 1023 1 1 0.00 0.00
5:52 am 05:52 Mostly Cloudy with Mist and Fog 50 10 48 8.9 93 93 NNE 5 7 30.21 1023 1 2 0.00 0.00
6:03 am 06:03 Mostly Clear with Mist and Fog 51 10.6 49 9.4 92 92 NNE 5 7 30.23 1024 1 2 0.00 0.00
6:26 am 06:26 Mostly Clear with Mist and Fog 50 10 49 9.4 96 96 VRB 6 9 30.23 1024 2 2 0.00 0.00
6:52 am 06:52 Partly Cloudy with Patchy Fog 50 10 48 8.9 93 93 NNE 5 7 30.22 1023 2 2 0.00 0.00
7:05 am 07:05 Partly Cloudy with Patchy Fog 49 9.4 48 8.9 97 97 NE 3 6 30.24 1024 1 1 0.00 0.00
7:09 am 07:09 Mostly Cloudy with Patchy Fog 50 10 48 8.9 93 93 NNE 3 6 30.24 1024 1 1 0.00 0.00
7:20 am 07:20 Partly Cloudy with Patchy Fog 50 10 49 9.4 96 96 NNE 5 7 30.24 1024 1 2 0.00 0.00
7:52 am 07:52 Partly Cloudy with Patchy Fog 50 10 48 8.9 93 93 N 3 6 30.22 1023 1 2 0.00 0.00
8:06 am 08:06 Sunny with Patchy Fog 50 10 48 8.9 93 93 N 3 6 30.24 1024 3 4 0.00 0.00
8:25 am 08:25 Sunny with Mist and Fog 50 10 49 9.4 96 96 Calm 30.24 1024 3 5 0.00 0.00
8:52 am 08:52 Sunny with Mist and Fog 52 11.1 50 10 93 93 ENE 7 11 30.23 1024 4 6 0.00 0.00
9:52 am 09:52 Sunny 57 13.9 50 10 78 78 NE 7 11 30.24 1024 7 11 0.00 0.00
10:52 am 10:52 Sunny 61 16.1 49 9.4 65 65 NE 9 15 30.23 1024 10 16 0.00 0.00
11:52 am 11:52 Sunny 65 18.3 44 6.7 47 47 ENE 8 13 30.23 1024 10 16 0.00 0.00
12:52 pm 12:52 Sunny 69 20.6 41 5 36 36 ENE 16 26 30.20 1023 10 16 0.00 0.00
1:52 pm 13:52 Sunny 70 21.1 40 4.4 34 34 ENE 13 20 30.18 1022 10 16 0.00 0.00
2:52 pm 14:52 Sunny 71 21.7 39 3.9 31 31 E 14 22 30.16 1021 10 16 0.00 0.00
3:52 pm 15:52 Sunny 72 22.2 38 3.3 29 29 ENE 10 17 30.14 1021 10 16 0.00 0.00
4:52 pm 16:52 Sunny 71 21.7 39 3.9 31 31 E 9 15 30.13 1020 10 16 0.00 0.00
5:52 pm 17:52 Sunny 70 21.1 39 3.9 32 32 E 13 20 30.13 1020 10 16 0.00 0.00
6:52 pm 18:52 Sunny 67 19.4 39 3.9 36 36 E 12 19 30.13 1020 10 16 0.00 0.00
7:52 pm 19:52 Clear 64 17.8 38 3.3 38 38 ENE 7 11 30.14 1021 10 16 0.00 0.00
8:52 pm 20:52 Clear 60 15.6 40 4.4 47 47 E 6 9 30.15 1021 10 16 0.00 0.00
9:52 pm 21:52 Clear 58 14.4 40 4.4 51 51 E 9 15 30.15 1021 10 16 0.00 0.00
10:52 pm 22:52 Clear 58 14.4 41 5 53 53 ENE 7 11 30.15 1021 10 16 0.00 0.00
11:52 pm 23:52 Clear 59 15 42 5.6 54 54 ENE 7 11 30.14 1021 10 16 0.00 0.00

Powered by AerisWeather